Tracking 29489 objects as of 9-Sep-2024
HD Live streaming from Space Station
objects crossing your sky now

FENGYUN 1C DEB

Track FENGYUN 1C DEB now!
10-day predictions


NORAD ID: 30434
Int'l Code: 1999-025AEV
Perigee: 845.9 km
Apogee: 1,026.5 km
Inclination: 99.0 °
Period: 103.6 minutes
Semi major axis: 7307 km
RCS: 0.018 m2 (small)
Launch date: May 10, 1999
Source: People's Republic of China (PRC)
Launch site: Taiyaun Space Center, China (TSC)

Note: This is SATELLITE DEBRIS
Your satellite tracking list
Your tracking list is empty




NASA's NSSDC Master Catalog

Two Line Element Set (TLE):
1 30434U 99025AEV 24252.98245478  .00002030  00000-0  15831-2 0  9996
2 30434  98.9684 249.2252 0123542  42.7320  13.0134 13.89878478893400
Source of the keplerian elements: AFSPC